Mesquite, TX

7:51 PM CDT on August 24, 2016 (GMT -0500)
Mesquite Metro

Weather History for KHQZ - October, 2012

Change the Weather History Date:

Wednesday, October 24, 2012

  Actual Average (KDFW) Record (KDFW)
Temperature  
Mean Temperature 73 °F 65 °F  
Max Temperature 82 °F 76 °F 90 °F (2003)
Min Temperature 64 °F 54 °F 34 °F (1917)
Degree Days  
Heating Degree Days 0 3  
Month to date heating degree days 39  
Since 1 July heating degree days 45  
Cooling Degree Days 8 3  
Month to date cooling degree days 126  
Year to date cooling degree days 2703  
Growing Degree Days 23 (Base 50)    
Moisture  
Dew Point 62 °F    
Average Humidity 74    
Maximum Humidity 94    
Minimum Humidity 48    
Precipitation  
Precipitation 0.00 in 0.14 in 2.76 in (1949)
Month to date precipitation 3.20  
Year to date precipitation 29.86  
Snow  
Snow 0.00 in 0.00 in 0.00 in ()
Month to date snowfall 0.0  
Since 1 July snowfall 0.0  
Since 1 September snowfall 0.0  
Snow Depth -    
Sea Level Pressure  
Sea Level Pressure 29.93 in    
Wind  
Wind Speed 9 mph (SSE)    
Max Wind Speed 18 mph    
Max Gust Speed 25 mph    
Visibility 10 miles    
Events      
T = Trace of Precipitation, MM = Missing Value Source: NWS Daily Summary

Daily Weather History Graph

Daily Weather History Graph

Search for Another Location

Airport or City:

Trip Planner

Search our weather history database for the weather conditions in past years. The results will help you decide how hot, cold, wet, or windy it might be!

Date:

Astronomy

Oct. 24, 2012 Rise Set
Actual Time 7:37 AM CDT 6:42 PM CDT
Civil Twilight 7:12 AM CDT 7:07 PM CDT
Nautical Twilight 6:43 AM CDT 7:36 PM CDT
Astronomical Twilight 6:14 AM CDT 8:05 PM CDT
Moon 3:45 PM CDT (10/24) 2:49 AM CDT (10/24)
Length of Visible Light 11h 55m
Length of Day
11h 04m
Waxing Gibbous, 76% of the Moon is Illuminated
Oct 24
Waxing Gibbous
Oct 29
Full
Nov 6
Last Quarter
Nov 13
New
Nov 20
First Quarter

Hourly Weather History & Observations

Time (CDT) Temp. Heat Index Dew Point Humidity Pressure Visibility Wind Dir Wind Speed Gust Speed Precip Events Conditions
12:15 AM 68.0 °F - 62.6 °F 83% 29.94 in 10.0 mi SSE 5.8 mph - N/A   Clear
12:35 AM 68.0 °F - 62.6 °F 83% 29.94 in 10.0 mi SSE 6.9 mph - N/A   Clear
12:55 AM 68.0 °F - 62.6 °F 83% 29.95 in 10.0 mi SSE 4.6 mph - N/A   Clear
1:15 AM 64.4 °F - 60.8 °F 88% 29.94 in 10.0 mi SSE 4.6 mph - N/A   Clear
1:35 AM 64.4 °F - 60.8 °F 88% 29.94 in 10.0 mi SSE 5.8 mph - N/A   Clear
1:55 AM 66.2 °F - 60.8 °F 83% 29.94 in 10.0 mi SSE 5.8 mph - N/A   Clear
2:15 AM 66.2 °F - 60.8 °F 83% 29.95 in 10.0 mi SSE 5.8 mph - N/A   Clear
2:35 AM 66.2 °F - 60.8 °F 83% 29.94 in 10.0 mi South 5.8 mph - N/A   Clear
2:55 AM 66.2 °F - 60.8 °F 83% 29.94 in 10.0 mi SSE 8.1 mph - N/A   Clear
3:15 AM 66.2 °F - 60.8 °F 83% 29.94 in 10.0 mi South 8.1 mph - N/A   Clear
3:35 AM 68.0 °F - 62.6 °F 83% 29.94 in 10.0 mi South 8.1 mph - N/A   Clear
3:55 AM 68.0 °F - 62.6 °F 83% 29.94 in 10.0 mi South 10.4 mph - N/A   Clear
4:15 AM 68.0 °F - 62.6 °F 83% 29.94 in 10.0 mi South 9.2 mph - N/A   Clear
4:35 AM 68.0 °F - 62.6 °F 83% 29.94 in 10.0 mi South 10.4 mph - N/A   Clear
4:55 AM 68.0 °F - 62.6 °F 83% 29.94 in 10.0 mi South 8.1 mph - N/A   Clear
5:15 AM 68.0 °F - 62.6 °F 83% 29.94 in 10.0 mi SSE 9.2 mph - N/A   Clear
5:35 AM 66.2 °F - 62.6 °F 88% 29.94 in 10.0 mi South 10.4 mph - N/A   Clear
5:55 AM 66.2 °F - 62.6 °F 88% 29.95 in 10.0 mi SSE 8.1 mph - N/A   Clear
6:15 AM 64.4 °F - 62.6 °F 94% 29.96 in 10.0 mi SSE 8.1 mph - N/A   Clear
6:35 AM 64.4 °F - 62.6 °F 94% 29.96 in 10.0 mi SSE 6.9 mph - N/A   Clear
6:55 AM 64.4 °F - 62.6 °F 94% 29.96 in 10.0 mi SSE 9.2 mph - N/A   Clear
7:15 AM 64.4 °F - 62.6 °F 94% 29.97 in 10.0 mi SSE 8.1 mph - N/A   Clear
7:35 AM 64.4 °F - 62.6 °F 94% 29.97 in 10.0 mi SSE 8.1 mph - N/A   Mostly Cloudy
7:55 AM 64.4 °F - 62.6 °F 94% 29.98 in 10.0 mi SSE 9.2 mph - N/A   Mostly Cloudy
8:15 AM 64.4 °F - 62.6 °F 94% 29.99 in 10.0 mi SSE 9.2 mph - N/A   Scattered Clouds
8:55 AM 68.0 °F - 64.4 °F 88% 29.99 in 7.0 mi South 11.5 mph - N/A   Overcast
9:15 AM 68.0 °F - 64.4 °F 88% 30.00 in 10.0 mi SSE 10.4 mph - N/A   Overcast
9:35 AM 69.8 °F - 64.4 °F 83% 30.00 in 10.0 mi South 11.5 mph - N/A   Overcast
9:55 AM 69.8 °F - 64.4 °F 83% 30.01 in 10.0 mi South 13.8 mph - N/A   Overcast
10:15 AM 69.8 °F - 64.4 °F 83% 30.01 in 10.0 mi South 11.5 mph - N/A   Overcast
10:35 AM 71.6 °F - 64.4 °F 78% 30.01 in 10.0 mi South 10.4 mph - N/A   Overcast
11:15 AM 73.4 °F - 64.4 °F 73% 30.01 in 10.0 mi South 17.3 mph 21.9 mph N/A   Overcast
11:35 AM 75.2 °F - 64.4 °F 69% 30.01 in 10.0 mi South 15.0 mph - N/A   Mostly Cloudy
11:55 AM 75.2 °F - 64.4 °F 69% 30.00 in 10.0 mi South 12.7 mph 20.7 mph N/A   Mostly Cloudy
12:15 PM 78.8 °F - 64.4 °F 61% 29.99 in 10.0 mi South 13.8 mph 24.2 mph N/A   Mostly Cloudy
12:35 PM 78.8 °F - 62.6 °F 57% 29.98 in 10.0 mi South 16.1 mph 20.7 mph N/A   Scattered Clouds
12:55 PM 78.8 °F - 62.6 °F 57% 29.97 in 10.0 mi South 16.1 mph 20.7 mph N/A   Scattered Clouds
1:35 PM 80.6 °F 81.8 °F 62.6 °F 54% 29.94 in 10.0 mi South 12.7 mph 21.9 mph N/A   Scattered Clouds
1:55 PM 80.6 °F 81.8 °F 62.6 °F 54% 29.93 in 10.0 mi South 16.1 mph 20.7 mph N/A   Scattered Clouds
2:15 PM 80.6 °F 81.8 °F 62.6 °F 54% 29.92 in 10.0 mi South 15.0 mph 20.7 mph N/A   Mostly Cloudy
2:35 PM 80.6 °F 81.8 °F 62.6 °F 54% 29.91 in 10.0 mi SSE 16.1 mph 23.0 mph N/A   Scattered Clouds
2:55 PM 82.4 °F 82.9 °F 60.8 °F 48% 29.90 in 10.0 mi South 18.4 mph 25.3 mph N/A   Scattered Clouds
3:15 PM 82.4 °F 83.4 °F 62.6 °F 51% 29.89 in 10.0 mi South 17.3 mph 24.2 mph N/A   Clear
3:35 PM 82.4 °F 82.9 °F 60.8 °F 48% 29.88 in 10.0 mi South 17.3 mph 24.2 mph N/A   Clear
3:55 PM 82.4 °F 82.9 °F 60.8 °F 48% 29.88 in 10.0 mi South 15.0 mph 23.0 mph N/A   Clear
4:15 PM 82.4 °F 82.9 °F 60.8 °F 48% 29.88 in 10.0 mi SSE 17.3 mph 24.2 mph N/A   Clear
4:35 PM 82.4 °F 83.4 °F 62.6 °F 51% 29.87 in 10.0 mi SSE 18.4 mph 23.0 mph N/A   Clear
4:55 PM 80.6 °F 81.8 °F 62.6 °F 54% 29.86 in 10.0 mi SSE 13.8 mph 25.3 mph N/A   Scattered Clouds
5:35 PM 80.6 °F 81.5 °F 60.8 °F 51% 29.86 in 10.0 mi SSE 13.8 mph 21.9 mph N/A   Clear
5:55 PM 80.6 °F 81.8 °F 62.6 °F 54% 29.86 in 10.0 mi SSE 12.7 mph - N/A   Clear
6:15 PM 78.8 °F - 62.6 °F 57% 29.86 in 10.0 mi SSE 11.5 mph - N/A   Clear
6:55 PM 77.0 °F - 62.6 °F 61% 29.87 in 10.0 mi SSE 8.1 mph - N/A   Unknown
7:35 PM 75.2 °F - 62.6 °F 65% 29.87 in 10.0 mi SSE 8.1 mph - N/A   Clear
8:15 PM 73.4 °F - 62.6 °F 69% 29.87 in 10.0 mi SSE 6.9 mph - N/A   Clear
8:35 PM 71.6 °F - 62.6 °F 73% 29.88 in 10.0 mi SSE 6.9 mph - N/A   Clear
8:55 PM 71.6 °F - 62.6 °F 73% 29.88 in 10.0 mi SSE 5.8 mph - N/A   Clear
9:15 PM 71.6 °F - 62.6 °F 73% 29.87 in 10.0 mi SE 8.1 mph - N/A   Clear
9:55 PM 69.8 °F - 62.6 °F 78% 29.87 in 10.0 mi SE 8.1 mph - N/A   Clear
10:15 PM 69.8 °F - 60.8 °F 73% 29.87 in 10.0 mi SE 8.1 mph - N/A   Clear
10:35 PM 69.8 °F - 60.8 °F 73% 29.87 in 10.0 mi SE 8.1 mph - N/A   Clear
10:55 PM 69.8 °F - 60.8 °F 73% 29.87 in 10.0 mi SE 8.1 mph - N/A   Clear
11:15 PM 69.8 °F - 60.8 °F 73% 29.86 in 10.0 mi SE 8.1 mph - N/A   Clear
11:35 PM 69.8 °F - 60.8 °F 73% 29.86 in 10.0 mi SE 10.4 mph - N/A   Clear
11:55 PM 69.8 °F - 60.8 °F 73% 29.85 in 10.0 mi SSE 12.7 mph - N/A   Clear